Weather History for PAHO - February, 2015

Change the Weather History Date:

Monday, February 23, 2015

  Actual Average Record
Temperature  
Mean Temperature 40 °F -  
Max Temperature 45 °F 32 °F 46 °F (1943)
Min Temperature 34 °F 19 °F -1 °F (1971)
Degree Days  
Heating Degree Days 26    
Moisture  
Dew Point 34 °F    
Average Humidity 76    
Maximum Humidity 89    
Minimum Humidity 60    
Precipitation  
Precipitation 0.02 in - - ()
Sea Level Pressure  
Sea Level Pressure 30.07 in    
Wind  
Wind Speed 4 mph (WSW)    
Max Wind Speed 13 mph    
Max Gust Speed -    
Visibility 10 miles    
Events Rain    
Averages and records for this station are not official NWS values.
T = Trace of Precipitation, MM = Missing Value Source: NWS Daily Summary

Daily Weather History Graph

Daily Weather History Graph

Search for Another Location

Airport or City:

Trip Planner

Search our weather history database for the weather conditions in past years. The results will help you decide how hot, cold, wet, or windy it might be!

Date:

Astronomy

Feb. 23, 2015 Rise Set
Actual Time 8:20 AM AKST 6:18 PM AKST
Civil Twilight 7:38 AM AKST 7:01 PM AKST
Nautical Twilight 6:51 AM AKST 7:48 PM AKST
Astronomical Twilight 6:03 AM AKST 8:36 PM AKST
Moon 9:59 AM AKST (2/23) 12:27 AM AKST (2/23)
Length of Visible Light 11h 22m
Length of Day
9h 58m
Waxing Crescent, 31% of the Moon is Illuminated
Feb 23
Waxing Crescent
Feb 25
First Quarter
Mar 5
Full
Mar 13
Last Quarter
Mar 20
New

Hourly Weather History & Observations

Time (AKST) Temp. Windchill Dew Point Humidity Pressure Visibility Wind Dir Wind Speed Gust Speed Precip Events Conditions
12:53 AM 41.0 °F - 37.0 °F 86% 29.87 in 10.0 mi Calm Calm - N/A   Mostly Cloudy
1:53 AM 39.9 °F - 37.0 °F 89% 29.89 in 10.0 mi Calm Calm - N/A   Overcast
2:30 AM 39.9 °F - 36.0 °F 86% 29.90 in 10.0 mi Calm Calm - 0.00 in Rain Light Rain
2:53 AM 39.9 °F - 37.0 °F 89% 29.91 in 10.0 mi Calm Calm - 0.00 in   Overcast
3:53 AM 41.0 °F - 37.9 °F 89% 29.92 in 10.0 mi Calm Calm - 0.01 in   Overcast
4:18 AM 41.0 °F 39.0 °F 37.9 °F 89% 29.92 in 10.0 mi ESE 3.5 mph - N/A   Overcast
4:53 AM 39.0 °F 35.7 °F 36.0 °F 89% 29.93 in 10.0 mi East 4.6 mph - N/A   Overcast
5:53 AM 39.0 °F 36.8 °F 36.0 °F 89% 29.94 in 10.0 mi North 3.5 mph - N/A   Overcast
6:53 AM 42.1 °F 38.4 °F 37.0 °F 82% 29.96 in 10.0 mi SW 5.8 mph - N/A   Mostly Cloudy
7:53 AM 43.0 °F 38.8 °F 35.1 °F 74% 29.99 in 10.0 mi West 6.9 mph - N/A   Mostly Cloudy
8:53 AM 43.0 °F 37.7 °F 33.1 °F 68% 30.01 in 10.0 mi West 9.2 mph - N/A   Mostly Cloudy
9:53 AM 44.1 °F 39.5 °F 35.1 °F 71% 30.04 in 10.0 mi WSW 8.1 mph - 0.00 in   Mostly Cloudy
10:53 AM 43.0 °F 37.2 °F 35.1 °F 74% 30.06 in 10.0 mi WSW 10.4 mph - N/A   Mostly Cloudy
11:53 AM 43.0 °F 37.7 °F 34.0 °F 71% 30.08 in 4.0 mi West 9.2 mph - 0.00 in Rain Rain
12:53 PM 43.0 °F 38.2 °F 34.0 °F 71% 30.10 in 10.0 mi West 8.1 mph - 0.00 in   Mostly Cloudy
1:53 PM 43.0 °F 38.2 °F 34.0 °F 71% 30.12 in 10.0 mi SW 8.1 mph - 0.01 in   Overcast
2:53 PM 44.1 °F 39.5 °F 35.1 °F 71% 30.13 in 10.0 mi SW 8.1 mph - N/A   Mostly Cloudy
3:53 PM 45.0 °F 40.1 °F 33.1 °F 63% 30.15 in 10.0 mi WSW 9.2 mph - N/A   Partly Cloudy
4:53 PM 43.0 °F 36.4 °F 32.0 °F 65% 30.17 in 10.0 mi WSW 12.7 mph - N/A   Clear
5:53 PM 41.0 °F 35.2 °F 30.9 °F 67% 30.18 in 10.0 mi WSW 9.2 mph - N/A   Clear
6:53 PM 41.0 °F 35.8 °F 28.0 °F 60% 30.20 in 10.0 mi WSW 8.1 mph - N/A   Clear
7:53 PM 39.9 °F 34.5 °F 28.9 °F 65% 30.22 in 10.0 mi WSW 8.1 mph - N/A   Clear
8:53 PM 39.9 °F 35.8 °F 30.0 °F 68% 30.24 in 10.0 mi SW 5.8 mph - N/A   Partly Cloudy
9:53 PM 34.0 °F - 27.0 °F 75% 30.25 in 10.0 mi Calm Calm - N/A   Clear
10:53 PM 34.0 °F 31.0 °F 27.0 °F 75% 30.26 in 10.0 mi ENE 3.5 mph - N/A   Partly Cloudy
11:53 PM 34.0 °F 28.8 °F 27.0 °F 75% 30.27 in 10.0 mi NNE 5.8 mph - N/A   Overcast